DW6927 Weather Reports


Display with metric or nautical units.
time (UTC)temp
F
wind
direction
speed
MPH
gust
MPH
rain 1hr
in
rain 24hr
in
rain mn
in
humidity
%
barometer
mb
20200405105105 49 0 0.0 0.0 0.00 0.00 0.00 80 1015.8
20200405104634 49 0 0.0 0.0 0.00 0.00 0.00 80 1015.6
20200405104106 49 0 0.0 0.0 0.00 0.00 0.00 79 1015.6
20200405103553 49 0 0.0 0.0 0.00 0.00 0.00 79 1015.7
20200405103212 49 0 0.0 0.0 0.00 0.00 0.00 79 1015.5
20200405102553 50 0 0.0 0.0 0.00 0.00 0.00 79 1015.5
20200405102055 50 0 0.0 0.0 0.00 0.00 0.00 78 1015.5
20200405101706 50 0 0.0 0.0 0.00 0.00 0.00 78 1015.5
20200405101054 50 0 0.0 0.0 0.00 0.00 0.00 78 1015.4
20200405100553 51 0 0.0 0.0 0.00 0.00 0.00 76 1015.2
20200405100127 51 0 0.0 0.0 0.00 0.00 0.00 75 1015.3
20200405095554 52 0 0.0 0.0 0.00 0.00 0.00 75 1015.3
20200405095054 52 0 0.0 0.0 0.00 0.00 0.00 76 1015.3
20200405094745 52 0 0.0 0.0 0.00 0.00 0.00 77 1015.3
20200405094053 52 0 0.0 0.0 0.00 0.00 0.00 75 1015.3
20200405093551 52 0 0.0 0.0 0.00 0.00 0.00 75 1015.4
20200405093158 51 0 0.0 0.0 0.00 0.00 0.00 73 1015.3
20200405092605 51 0 0.0 0.0 0.00 0.00 0.00 74 1015.3
20200405092100 51 0 0.0 0.0 0.00 0.00 0.00 74 1015.1
20200405091632 51 0 0.0 0.0 0.00 0.00 0.00 74 1015.2
20200405091054 51 0 0.0 0.0 0.00 0.00 0.00 75 1014.8
20200405090558 51 0 0.0 0.0 0.00 0.00 0.00 75 1014.7
20200405090107 51 0 0.0 0.0 0.00 0.00 0.00 74 1014.7
20200405085553 51 0 0.0 0.0 0.00 0.00 0.00 75 1014.6
20200405085052 51 0 0.0 0.0 0.00 0.00 0.00 75 1014.4
20200405084624 51 0 0.0 0.0 0.00 0.00 0.00 74 1014.6
20200405084056 51 0 0.0 0.0 0.00 0.00 0.00 73 1014.6
20200405083554 51 0 0.0 0.0 0.00 0.00 0.00 74 1014.7
20200405083123 51 0 0.0 0.0 0.00 0.00 0.00 73 1014.8
20200405082600 52 0 0.0 0.0 0.00 0.00 0.00 73 1014.8
20200405082101 52 0 0.0 0.0 0.00 0.00 0.00 73 1014.8
20200405081635 52 0 0.0 0.0 0.00 0.00 0.00 73 1014.9
20200405081053 52 0 0.0 0.0 0.00 0.00 0.00 72 1014.7
20200405080602 52 0 0.0 0.0 0.00 0.00 0.00 72 1014.7
20200405080111 52 0 0.0 0.0 0.00 0.00 0.00 72 1014.8
20200405075553 52 0 0.0 0.0 0.00 0.00 0.00 71 1014.8
20200405075054 53 0 0.0 0.0 0.00 0.00 0.00 71 1014.9
20200405074640 53 0 0.0 0.0 0.00 0.00 0.00 70 1014.8
20200405074108 53 0 0.0 0.0 0.00 0.00 0.00 69 1014.9
20200405073552 53 0 0.0 0.0 0.00 0.00 0.00 69 1015.0
20200405073056 53 0 0.0 0.0 0.00 0.00 0.00 69 1015.0
20200405072553 54 0 0.0 0.0 0.00 0.00 0.00 69 1015.0
20200405072053 54 0 0.0 0.0 0.00 0.00 0.00 69 1015.0
20200405071654 54 0 0.0 0.0 0.00 0.00 0.00 69 1015.1
20200405071100 54 0 0.0 0.0 0.00 0.00 0.00 66 1015.1
20200405070552 54 0 0.0 0.0 0.00 0.00 0.00 67 1015.1
20200405070116 54 0 0.0 0.0 0.00 0.00 0.00 66 1015.2
20200405065556 54 0 0.0 0.0 0.00 0.00 0.00 66 1015.2
20200405065054 54 0 0.0 0.0 0.00 0.00 0.00 66 1015.2
20200405064618 54 0 0.0 0.0 0.00 0.00 0.00 66 1015.3
20200405064057 54 0 0.0 0.0 0.00 0.00 0.00 66 1015.4
20200405063557 54 0 0.0 0.0 0.00 0.00 0.00 66 1015.3
20200405063147 54 0 0.0 0.0 0.00 0.00 0.00 67 1015.4
20200405062558 54 0 0.0 0.0 0.00 0.00 0.00 66 1015.3
20200405062110 54 0 0.0 0.0 0.00 0.00 0.00 65 1015.4
20200405061605 54 0 0.0 0.0 0.00 0.00 0.00 66 1015.4
20200405061111 54 0 0.0 0.0 0.00 0.00 0.00 66 1015.3
20200405060601 54 0 0.0 0.0 0.00 0.00 0.00 66 1015.4
20200405060119 54 0 0.0 0.0 0.00 0.00 0.00 65 1015.4
20200405055606 54 0 0.0 0.0 0.00 0.00 0.00 66 1015.5
20200405055057 54 0 0.0 0.0 0.00 0.00 0.00 66 1015.4
20200405054729 54 0 0.0 0.0 0.00 0.00 0.00 66 1015.6
20200405054052 54 0 0.0 0.0 0.00 0.00 0.00 66 1015.5
20200405053631 54 0 0.0 0.0 0.00 0.00 0.00 64 1015.4
20200405053058 55 0 0.0 0.0 0.00 0.00 0.00 64 1015.5
20200405052630 55 0 0.0 0.0 0.00 0.00 0.00 64 1015.4
20200405052051 55 0 0.0 0.0 0.00 0.00 0.00 63 1015.5
20200405051633 56 0 0.0 0.0 0.00 0.00 0.00 62 1015.4
20200405051053 56 0 0.0 0.0 0.00 0.00 0.00 62 1015.4
20200405050555 56 0 0.0 0.0 0.00 0.00 0.00 61 1015.4
20200405050103 56 0 0.0 0.0 0.00 0.00 0.00 63 1015.3
20200405045554 56 0 0.0 0.0 0.00 0.00 0.00 61 1015.3
20200405045054 57 0 0.0 0.0 0.00 0.00 0.00 59 1015.3
20200405044606 57 0 0.0 0.0 0.00 0.00 0.00 60 1015.5
20200405044058 57 0 0.0 0.0 0.00 0.00 0.00 59 1015.5
20200405043552 58 0 0.0 0.0 0.00 0.00 0.00 59 1015.5
20200405043104 58 0 0.0 0.0 0.00 0.00 0.00 57 1015.5
20200405042553 58 0 0.0 0.0 0.00 0.00 0.00 56 1015.5
20200405042054 58 0 0.0 0.0 0.00 0.00 0.00 56 1015.5
20200405041642 59 0 0.0 0.0 0.00 0.00 0.00 56 1015.4
20200405041054 59 0 0.0 0.0 0.00 0.00 0.00 55 1015.5
20200405040607 59 0 0.0 0.0 0.00 0.00 0.00 54 1015.4
20200405040115 59 0 0.0 0.0 0.00 0.00 0.00 54 1015.4
20200405035550 59 0 0.0 0.0 0.00 0.00 0.00 53 1015.3
20200405035056 59 0 0.0 0.0 0.00 0.00 0.00 54 1015.2
20200405034831 59 0 0.0 0.0 0.00 0.00 0.00 53 1015.4
20200405034104 59 0 0.0 0.0 0.00 0.00 0.00 53 1015.4
20200405033552 59 0 0.0 0.0 0.00 0.00 0.00 53 1015.4
20200405033141 59 0 0.0 0.0 0.00 0.00 0.00 52 1015.6
20200405032554 59 0 0.0 0.0 0.00 0.00 0.00 52 1015.6
20200405032053 59 0 0.0 0.0 0.00 0.00 0.00 52 1015.7
20200405031627 59 0 0.0 0.0 0.00 0.00 0.00 52 1015.5
20200405031102 60 0 0.0 0.0 0.00 0.00 0.00 52 1015.5
20200405030601 60 0 0.0 0.0 0.00 0.00 0.00 52 1015.4
20200405030131 60 0 0.0 0.0 0.00 0.00 0.00 52 1015.4
20200405025610 60 0 0.0 0.0 0.00 0.00 0.00 52 1015.3
20200405025104 61 0 0.0 0.0 0.00 0.00 0.00 50 1015.2
20200405024744 61 0 0.0 1.0 0.00 0.00 0.00 51 1015.2
20200405024053 61 0 0.0 1.0 0.00 0.00 0.00 49 1015.3
20200405023621 62 0 0.0 0.0 0.00 0.00 0.00 48 1015.2
20200405023141 62 0 0.0 0.0 0.00 0.00 0.00 48 1015.1
20200405022553 62 0 0.0 0.0 0.00 0.00 0.00 49 1015.2
20200405022057 62 0 0.0 0.0 0.00 0.00 0.00 48 1015.1
20200405021625 62 0 0.0 1.0 0.00 0.00 0.00 48 1015.2
20200405021059 62 0 0.0 1.0 0.00 0.00 0.00 48 1015.2
20200405020557 62 0 0.0 0.0 0.00 0.00 0.00 48 1015.2
20200405020138 62 0 0.0 0.0 0.00 0.00 0.00 48 1015.2
20200405015554 62 0 0.0 0.0 0.00 0.00 0.00 47 1015.2
20200405015053 62 0 0.0 0.0 0.00 0.00 0.00 47 1015.0
20200405014704 62 0 0.0 1.0 0.00 0.00 0.00 47 1015.0
20200405014054 62 0 0.0 1.0 0.00 0.00 0.00 47 1015.1
20200405013553 62 0 0.0 0.0 0.00 0.00 0.00 48 1015.1
20200405013259 62 0 0.0 0.0 0.00 0.00 0.00 47 1015.0
20200405012608 63 0 0.0 0.0 0.00 0.00 0.00 47 1015.2
20200405012054 63 0 0.0 0.0 0.00 0.00 0.00 47 1014.9
20200405011631 63 0 0.0 0.0 0.00 0.00 0.00 46 1015.0
20200405011051 63 0 0.0 0.0 0.00 0.00 0.00 46 1015.0
20200405010556 63 0 0.0 1.0 0.00 0.00 0.00 46 1014.9
20200405010219 64 0 0.0 1.0 0.00 0.00 0.00 45 1014.8
20200405005603 64 0 0.0 1.0 0.00 0.00 0.00 45 1014.7
20200405005052 64 0 0.0 1.0 0.00 0.00 0.00 44 1014.6
20200405004724 64 0 0.0 2.0 0.00 0.00 0.00 44 1014.5
20200405004101 64 0 0.0 2.0 0.00 0.00 0.00 45 1014.4
20200405003551 65 298 0.0 2.0 0.00 0.00 0.00 44 1014.4
20200405003127 65 0 0.0 2.0 0.00 0.00 0.00 44 1014.5
20200405002553 66 0 0.0 2.0 0.00 0.00 0.00 42 1014.6
20200405002057 66 0 0.0 3.0 0.00 0.00 0.00 42 1014.4
20200405001618 66 0 0.0 3.0 0.00 0.00 0.00 41 1014.5
20200405001100 66 0 0.0 1.0 0.00 0.00 0.00 44 1014.5
20200405000552 67 0 0.0 1.0 0.00 0.00 0.00 41 1014.4
20200405000147 67 0 0.0 1.0 0.00 0.00 0.00 40 1014.4
20200404235554 67 0 0.0 1.0 0.00 0.00 0.00 40 1014.4
20200404235051 68 0 0.0 1.0 0.00 0.00 0.00 40 1014.3
20200404234600 68 0 0.0 1.0 0.00 0.00 0.00 40 1014.3
20200404234121 68 0 0.0 3.0 0.00 0.00 0.00 39 1014.5
20200404233556 68 0 0.0 3.0 0.00 0.00 0.00 38 1014.3
20200404233123 69 0 0.0 3.0 0.00 0.00 0.00 37 1014.3
20200404232553 69 0 0.0 2.0 0.00 0.00 0.00 37 1014.2
20200404232053 69 0 0.0 1.0 0.00 0.00 0.00 38 1014.1
20200404231629 69 0 0.0 1.0 0.00 0.00 0.00 37 1014.0
20200404231053 70 0 0.0 3.0 0.00 0.00 0.00 36 1013.8
20200404230553 70 0 0.0 3.0 0.00 0.00 0.00 36 1013.7
20200404230154 70 0 0.0 2.0 0.00 0.00 0.00 35 1013.7
20200404225609 70 11 0.0 1.0 0.00 0.00 0.00 34 1013.5
20200404225054 71 0 0.0 2.0 0.00 0.00 0.00 35 1013.7
20200404224602 71 0 0.0 3.0 0.00 0.00 0.00 35 1013.6
20200404224050 71 0 0.0 3.0 0.00 0.00 0.00 35 1013.5
20200404223604 71 0 0.0 3.0 0.00 0.00 0.00 34 1013.5
20200404223126 71 0 0.0 3.0 0.00 0.00 0.00 35 1013.4
20200404222554 71 0 0.0 1.0 0.00 0.00 0.00 36 1013.4
20200404222054 71 0 0.0 1.0 0.00 0.00 0.00 34 1013.3
20200404221601 72 0 0.0 1.0 0.00 0.00 0.00 34 1013.4
20200404221054 72 0 0.0 3.0 0.00 0.00 0.00 34 1013.4
20200404220553 72 0 1.0 5.0 0.00 0.00 0.00 33 1013.4
20200404220135 72 0 1.0 5.0 0.00 0.00 0.00 33 1013.4
20200404215553 72 350 0.0 4.0 0.00 0.00 0.00 34 1013.4
20200404215053 72 0 0.0 4.0 0.00 0.00 0.00 33 1013.3
20200404214712 72 0 0.0 5.0 0.00 0.00 0.00 32 1013.2
20200404214101 73 0 0.0 5.0 0.00 0.00 0.00 32 1013.2
20200404213555 73 0 0.0 4.0 0.00 0.00 0.00 32 1013.3
20200404213301 73 0 0.0 4.0 0.00 0.00 0.00 31 1013.2
20200404212551 73 0 0.0 4.0 0.00 0.00 0.00 31 1013.2
20200404212056 74 0 0.0 4.0 0.00 0.00 0.00 31 1013.3
20200404211743 73 0 0.0 4.0 0.00 0.00 0.00 31 1013.4
20200404211101 73 0 0.0 4.0 0.00 0.00 0.00 31 1013.2
20200404210556 73 0 0.0 4.0 0.00 0.00 0.00 31 1013.4
20200404210112 73 0 0.0 4.0 0.00 0.00 0.00 32 1013.5
20200404205556 73 0 0.0 4.0 0.00 0.00 0.00 31 1013.4
20200404205051 74 0 0.0 4.0 0.00 0.00 0.00 31 1013.2
20200404204816 74 347 0.0 5.0 0.00 0.00 0.00 30 1013.4
20200404204053 74 9 2.0 5.0 0.00 0.00 0.00 30 1013.3
20200404203551 74 277 0.0 5.0 0.00 0.00 0.00 31 1013.2
20200404203053 74 0 1.0 7.0 0.00 0.00 0.00 30 1013.3
20200404202553 74 0 2.0 7.0 0.00 0.00 0.00 30 1013.4
20200404202051 74 11 0.0 6.0 0.00 0.00 0.00 30 1013.4
20200404201725 74 0 0.0 9.0 0.00 0.00 0.00 31 1013.4
20200404201054 74 333 1.0 9.0 0.00 0.00 0.00 31 1013.4
20200404200551 74 340 1.0 10.0 0.00 0.00 0.00 31 1013.5
20200404200133 74 11 2.0 10.0 0.00 0.00 0.00 31 1013.7
20200404195553 73 334 0.0 7.0 0.00 0.00 0.00 31 1013.6
20200404195103 73 337 0.0 7.0 0.00 0.00 0.00 31 1013.5
20200404194617 73 16 1.0 5.0 0.00 0.00 0.00 30 1013.4
20200404194053 73 5 0.0 6.0 0.00 0.00 0.00 31 1013.5
20200404193605 73 22 0.0 6.0 0.00 0.00 0.00 31 1013.5
20200404193058 74 37 1.0 6.0 0.00 0.00 0.00 31 1013.7
20200404192550 74 0 0.0 6.0 0.00 0.00 0.00 31 1013.9
20200404192052 73 0 0.0 6.0 0.00 0.00 0.00 34 1013.9
20200404191622 73 331 0.0 5.0 0.00 0.00 0.00 31 1014.0
20200404191139 73 36 2.0 5.0 0.00 0.00 0.00 30 1014.1
20200404190553 73 0 0.0 5.0 0.00 0.00 0.00 30 1014.1
20200404190150 73 0 0.0 3.0 0.00 0.00 0.00 31 1014.2
20200404185558 73 0 0.0 4.0 0.00 0.00 0.00 36 1014.2
20200404185053 73 90 1.0 6.0 0.00 0.00 0.00 31 1014.4
20200404184650 73 0 2.0 9.0 0.00 0.00 0.00 30 1014.6
20200404184053 73 0 2.0 9.0 0.00 0.00 0.00 31 1014.6
20200404183549 73 0 1.0 6.0 0.00 0.00 0.00 30 1014.6
20200404183136 72 98 0.0 9.0 0.00 0.00 0.00 31 1014.7
20200404182556 72 0 2.0 9.0 0.00 0.00 0.00 30 1014.9
20200404182054 72 0 0.0 4.0 0.00 0.00 0.00 34 1014.9
20200404181624 72 0 0.0 7.0 0.00 0.00 0.00 31 1015.0
20200404181107 73 0 0.0 7.0 0.00 0.00 0.00 31 1015.2
20200404180553 71 0 2.0 5.0 0.00 0.00 0.00 34 1015.2
20200404180151 72 258 1.0 6.0 0.00 0.00 0.00 32 1015.3
20200404175554 71 351 1.0 6.0 0.00 0.00 0.00 32 1015.2
20200404175055 71 0 0.0 5.0 0.00 0.00 0.00 34 1015.4
20200404174621 70 0 2.0 6.0 0.00 0.00 0.00 33 1015.3
20200404174101 71 0 2.0 8.0 0.00 0.00 0.00 33 1015.5
20200404173559 70 142 1.0 8.0 0.00 0.00 0.00 37 1015.5
20200404173220 70 344 0.0 5.0 0.00 0.00 0.00 35 1015.6
20200404172552 70 0 2.0 5.0 0.00 0.00 0.00 36 1015.6
20200404172052 70 61 0.0 3.0 0.00 0.00 0.00 36 1015.7
20200404171603 69 0 0.0 4.0 0.00 0.00 0.00 36 1015.8
20200404171051 69 0 1.0 4.0 0.00 0.00 0.00 35 1015.9
20200404170602 69 0 0.0 4.0 0.00 0.00 0.00 35 1015.9
20200404170124 69 0 1.0 4.0 0.00 0.00 0.00 35 1016.1
20200404165550 69 317 0.0 4.0 0.00 0.00 0.00 35 1016.1
20200404165050 68 350 1.0 4.0 0.00 0.00 0.00 36 1016.1
20200404164557 69 53 0.0 4.0 0.00 0.00 0.00 35 1016.0
20200404164053 69 0 0.0 3.0 0.00 0.00 0.00 37 1016.1
20200404163553 68 0 0.0 4.0 0.00 0.00 0.00 36 1016.2
20200404163138 68 0 1.0 5.0 0.00 0.00 0.00 34 1016.3
20200404162557 68 0 0.0 5.0 0.00 0.00 0.00 36 1016.3
20200404162119 68 0 0.0 3.0 0.00 0.00 0.00 36 1016.4
20200404161635 68 31 0.0 5.0 0.00 0.00 0.00 39 1016.5
20200404161052 68 0 0.0 5.0 0.00 0.00 0.00 37 1016.4
20200404160600 67 0 0.0 6.0 0.00 0.00 0.00 37 1016.6
20200404160312 67 0 2.0 6.0 0.00 0.00 0.00 39 1016.5
20200404155602 67 42 1.0 5.0 0.00 0.00 0.00 39 1016.7
20200404155100 66 0 0.0 5.0 0.00 0.00 0.00 41 1016.8
20200404154630 66 0 0.0 3.0 0.00 0.00 0.00 42 1016.9
20200404154103 65 0 0.0 3.0 0.00 0.00 0.00 44 1017.1
20200404153553 64 0 0.0 3.0 0.00 0.00 0.00 43 1017.2
20200404153123 64 0 0.0 1.0 0.00 0.00 0.00 48 1017.4
20200404152557 62 0 0.0 3.0 0.00 0.00 0.00 49 1017.4
20200404152054 62 0 1.0 3.0 0.00 0.00 0.00 50 1017.7
20200404151802 61 0 0.0 2.0 0.00 0.00 0.00 52 1017.5
20200404151050 60 0 0.0 2.0 0.00 0.00 0.00 56 1017.6
20200404150555 60 0 0.0 1.0 0.00 0.00 0.00 58 1017.6
20200404150141 59 0 0.0 1.0 0.00 0.00 0.00 60 1017.5
20200404145553 59 0 0.0 1.0 0.00 0.00 0.00 63 1017.5
20200404145059 58 0 0.0 1.0 0.00 0.00 0.00 63 1017.4
20200404144653 58 0 0.0 1.0 0.00 0.00 0.00 62 1017.4
20200404144050 57 0 0.0 1.0 0.00 0.00 0.00 61 1017.4
20200404143554 57 0 0.0 2.0 0.00 0.00 0.00 61 1017.3
20200404143134 57 296 0.0 2.0 0.00 0.00 0.00 62 1017.3
20200404142607 56 0 0.0 1.0 0.00 0.00 0.00 65 1017.2
20200404142053 56 0 0.0 1.0 0.00 0.00 0.00 68 1017.2
20200404141713 56 0 0.0 1.0 0.00 0.00 0.00 71 1017.0
20200404141052 55 0 0.0 1.0 0.00 0.00 0.00 71 1017.2
20200404140554 55 0 0.0 1.0 0.00 0.00 0.00 72 1017.0
20200404140116 54 0 0.0 1.0 0.00 0.00 0.00 72 1017.0
20200404135551 54 0 0.0 1.0 0.00 0.00 0.00 71 1017.1
20200404135051 54 0 0.0 1.0 0.00 0.00 0.00 74 1017.0
20200404134627 53 0 0.0 0.0 0.00 0.00 0.00 73 1017.0
20200404134054 53 0 0.0 0.0 0.00 0.00 0.00 72 1017.1
20200404133554 53 0 0.0 1.0 0.00 0.00 0.00 72 1016.8
20200404133140 53 0 0.0 1.0 0.00 0.00 0.00 73 1016.9
20200404132606 53 0 0.0 0.0 0.00 0.00 0.00 75 1016.8
20200404132112 53 0 0.0 0.0 0.00 0.00 0.00 78 1016.7
20200404131746 52 0 0.0 0.0 0.00 0.00 0.00 78 1016.7
20200404131050 52 0 0.0 0.0 0.00 0.00 0.00 76 1016.8
20200404130552 52 0 0.0 0.0 0.00 0.00 0.00 76 1017.0
20200404130110 52 0 0.0 0.0 0.00 0.00 0.00 76 1017.0
20200404125551 52 0 0.0 0.0 0.00 0.00 0.00 74 1016.8
20200404125056 52 0 0.0 0.0 0.00 0.00 0.00 74 1017.0
20200404124629 52 0 0.0 0.0 0.00 0.00 0.00 73 1016.9
20200404124051 52 0 0.0 0.0 0.00 0.00 0.00 74 1016.8
20200404123553 52 0 0.0 0.0 0.00 0.00 0.00 74 1016.5
20200404123056 52 0 0.0 0.0 0.00 0.00 0.00 73 1016.7
20200404122624 52 0 0.0 0.0 0.00 0.00 0.00 73 1016.6
20200404122053 52 0 0.0 0.0 0.00 0.00 0.00 73 1016.5
20200404121711 52 0 0.0 0.0 0.00 0.00 0.00 71 1016.5
20200404121052 52 0 0.0 0.0 0.00 0.00 0.00 71 1016.4
20200404120607 52 0 0.0 0.0 0.00 0.00 0.00 66 1016.3
20200404120145 52 0 0.0 0.0 0.00 0.00 0.00 66 1016.4
20200404115551 52 0 0.0 0.0 0.00 0.00 0.00 64 1016.4
20200404115101 52 0 0.0 0.0 0.00 0.00 0.00 59 1016.2
20200404114702 51 0 0.0 0.0 0.00 0.00 0.00 65 1016.3
20200404114107 52 0 0.0 0.0 0.00 0.00 0.00 64 1016.2
20200404113552 52 0 0.0 1.0 0.00 0.00 0.00 65 1016.1
20200404113113 52 0 0.0 1.0 0.00 0.00 0.00 68 1016.1
20200404112557 53 0 0.0 1.0 0.00 0.00 0.00 63 1016.0
20200404112053 53 0 0.0 0.0 0.00 0.00 0.00 59 1015.9
20200404111713 53 0 0.0 0.0 0.00 0.00 0.00 56 1015.9
20200404111101 52 0 0.0 0.0 0.00 0.00 0.00 58 1015.8
20200404110550 52 0 0.0 0.0 0.00 0.00 0.00 63 1015.6
20200404110212 52 0 0.0 0.0 0.00 0.00 0.00 56 1015.8
20200404105551 51 0 0.0 0.0 0.00 0.00 0.00 59 1015.6